GW1242 Weather Reports


Display with metric or nautical units.
time (UTC)temp
F
wind
direction
speed
MPH
gust
MPH
rain 1hr
in
rain 24hr
in
rain mn
in
humidity
%
barometer
mb
20260508120033 36 225 0.0 0.0 0.00 0.00 0.00 97 1113.7
20260508114540 35 225 0.0 0.0 0.00 0.00 0.00 97 1113.4
20260508113039 34 225 0.0 0.0 0.00 0.00 0.00 97 1113.1
20260508111541 33 225 0.0 0.0 0.00 0.00 0.00 96 1112.8
20260508110030 33 225 0.0 0.0 0.00 0.00 0.00 96 1112.6
20260508104540 33 225 0.0 0.0 0.00 0.01 0.00 96 1112.6
20260508103107 34 225 0.0 0.0 0.00 0.01 0.00 96 1112.4
20260508101532 34 225 0.0 0.0 0.00 0.01 0.00 96 1112.2
20260508100040 34 225 0.0 0.0 0.00 0.01 0.00 96 1112.1
20260508093039 35 225 0.0 0.0 0.00 0.01 0.00 96 1112.0
20260508091539 36 225 0.0 0.0 0.00 0.02 0.00 96 1111.9
20260508090051 36 225 0.0 0.0 0.00 0.02 0.00 96 1112.0
20260508084615 37 225 0.0 0.0 0.00 0.02 0.00 96 1111.9
20260508081539 37 225 0.0 0.0 0.00 0.02 0.00 96 1112.0
20260508080144 38 225 0.0 0.0 0.00 0.02 0.00 95 1112.0
20260508074644 38 225 0.0 0.0 0.00 0.02 0.00 95 1112.0
20260508073052 38 225 0.0 0.0 0.00 0.02 0.00 95 1112.0
20260508071540 39 225 0.0 0.0 0.00 0.02 0.00 95 1112.1
20260508064532 40 225 0.0 0.0 0.00 0.02 0.00 95 1112.1
20260508061532 40 225 0.0 0.0 0.00 0.02 0.00 95 1112.3
20260508060040 41 225 0.0 0.0 0.00 0.02 0.00 94 1112.2
20260508054541 41 225 0.0 0.0 0.00 0.02 0.00 94 1112.2
20260508053039 42 225 0.0 0.0 0.00 0.02 0.00 94 1112.3
20260508051541 42 225 0.0 0.0 0.00 0.02 0.00 94 1112.3
20260508050039 42 225 0.0 0.0 0.00 0.02 0.00 93 1112.2
20260508044531 43 225 0.0 0.0 0.00 0.02 0.00 93 1112.0
20260508043114 44 225 0.0 0.0 0.00 0.02 0.00 93 1111.7
20260508041539 44 225 0.0 2.0 0.00 0.02 0.00 93 1111.7
20260508040040 44 225 0.0 1.0 0.00 0.02 0.00 93 1111.6
20260508034533 45 225 0.0 1.0 0.00 0.02 0.02 93 1111.6
20260508033039 45 225 0.0 0.0 0.00 0.02 0.02 93 1111.4
20260508031538 44 251 0.0 5.0 0.00 0.02 0.02 92 1111.5
20260508030115 44 360 0.0 1.0 0.00 0.02 0.02 92 1111.6
20260508024642 45 360 0.0 1.0 0.00 0.02 0.02 91 1111.4
20260508023039 45 360 0.0 0.0 0.00 0.02 0.02 90 1111.1
20260508021529 46 360 0.0 0.0 0.00 0.02 0.02 89 1111.0
20260508020039 47 360 0.0 0.0 0.00 0.02 0.02 89 1110.8
20260508014539 47 360 0.0 1.0 0.00 0.02 0.02 87 1110.7
20260508013051 48 360 0.0 1.0 0.00 0.02 0.02 85 1110.5
20260508011541 49 360 0.0 0.0 0.00 0.02 0.02 83 1110.2
20260508010038 51 360 0.0 2.0 0.00 0.02 0.02 80 1110.0
20260508004528 53 360 0.0 3.0 0.00 0.02 0.02 74 1109.9
20260508003116 57 360 0.0 1.0 0.00 0.02 0.02 67 1109.7
20260508001539 61 360 0.0 1.0 0.00 0.02 0.02 61 1109.5
20260508000142 64 319 0.0 2.0 0.00 0.02 0.02 60 1109.3
20260507233126 55 247 0.0 2.0 0.00 0.02 0.01 93 1108.2